Regional Weather Roundup
Issued by NWS Newport/Morehead, NC

Current Version | Previous Version | Graphics & Text | Print | Product List | Glossary Off
Versions: 1 2 3 4 5 6 7 8 9 10 11 12 13 14 15 16 17 18 19 20 21 22 23 24 25 26 27 28 29 30 31 32 33 34 35 36 37 38 39 40 41 42 43 44 45 46 47 48 49 50
000 ASUS42 KMHX 310925 RWRMHX WEATHER ROUNDUP FOR EASTERN NORTH CAROLINA NATIONAL WEATHER SERVICE NEWPORT/MOREHEAD CITY NC 500 AM EDT FRI JUL 31 2015 NOTE: "FAIR" INDICATES FEW OR NO CLOUDS BELOW 12,000 FEET WITH NO SIGNIFICANT WEATHER AND/OR OBSTRUCTIONS TO VISIBILITY NCZ015>017-031-032-045>047-102-103-311000- NORTH COAST CITY SKY/WX TMP DP RH WIND PRES REMARKS EDENTON N/A 79 74 86 CALM 29.87S ELIZABETH CITY MOCLDY 78 76 93 CALM 29.87S KITTY HAWK SUNNY 78 73 86 CALM 29.86S MANTEO CLEAR 79 76 89 W3 29.87S $$ NCZ045>047-081-094-103-104-311000- CENTRAL COAST CITY SKY/WX TMP DP RH WIND PRES REMARKS FRISCO CLEAR 78 75 90 CALM 29.87R SWANQUARTER N/A 77 N/A N/A N1 29.82S $$ NCZ095-097-098-100-101-311000- SOUTHERN COAST CITY SKY/WX TMP DP RH WIND PRES REMARKS BEAUFORT CLEAR 77 76 96 N3 29.86S CEDAR ISLAND N/A 79 N/A N/A W3 29.91S JACKSONVILLE PTCLDY 75 73 93 W3 29.86S PINEY ISLAND MOSUNNY N/A N/A N/A MISG 29.86S WILMINGTON CLOUDY 77 75 93 CALM 29.87R $$ NCZ011>013-027>030-043-044-078>080-089-090>093-098-311000- COASTAL PLAIN CITY SKY/WX TMP DP RH WIND PRES REMARKS AHOSKIE MOCLDY 76 74 92 N6 29.88S CLINTON CLEAR 76 75 97 CALM 29.88S ELIZABETHTOWN PTCLDY 77 75 92 CALM 29.88S GOLDSBORO PTCLDY 78 76 93 NW5 29.85S GREENVILLE PTCLDY 77 77 100 CALM 29.89S HAVELOCK CLEAR 75 74 96 CALM 29.87F KENANSVILLE PTCLDY N/A N/A N/A CALM 29.88S KINSTON PTCLDY 76 74 96 CALM 29.88S NEW BERN MOCLDY 74 72 93 CALM 29.88S FOG RICHLANDS MOCLDY 73 68 83 CALM 29.87S ROCKY MOUNT PTCLDY 77 75 93 N7 29.88S WASHINGTON MOCLDY 76 74 95 CALM 29.87F WHITEVILLE PTCLDY 76 74 91 CALM 29.88R $$ AMZ130-135-150-152-154-156-158-170-250-252-270-ANZ085-086-088-633-658-670-311000- MARINE OBSERVATIONS STATION/POSITION TIME TEMP WIND PRES WAVE SWELL AIR SEA DIR/SP/G HT/PER HT/PER (UTC) (F) (DEG/KT/KT) (MB) (FT/S) (FT/S) CHESAPEAKE LIGHT 0900 76 20/ 14/ 15 1012.2 64 E VA BEACH 0850 81 81 210/ 10/ 12 1011.1 4/ 6 3/ 6 DUCK 0900 80 62 230/ 5/ 7 1010.4 2 E DUCK 0811 69 N/A 2/ 9 OREGON INLET 0900 82 84 190/ 5/ 7 1011.1 13E OREGON INLT 0900 81 N/A 4/ 7 HATTERAS CG 0900 80 83 CALM 1011.0 DIAMOND BUOY 0850 83 85 160/ 6/ 8 1011.0 4/ 8 3/ 8 CAPE LOOKOUT 0900 80 350/ 7/ 9 1010.8 BEAUFORT LAB 0900 80 83 360/ 4/ 5 1010.4 30 SE NEW RVR IN NOT AVBL 27 SE WRIGHTSVLE 0900 78 82 340/ 4/ 6 N/A 5 SE WRIGHTSVLE 0808 81 83 350/ 4/ 6 1011.0 225 S CAPE HAT 0850 81 81 220/ 29/ 35 1012.5 10/ 9 41 SE CHARLESTON 0850 82 84 260/ 16/ 17 1011.3 3/ 4 2/ 8 $$

USA.gov is the U.S. government's official web portal to all federal, state and local government web resources and services.